START_TIME,STEP,MOV.,M29,t_acc.,H22,t_acc.,H26,t_acc.,H30,t_acc.
1981-08-30 12:00:32.440 ,5,0,0.,24.0,0.,24.0,0.,24.0,0.,24.0
1981-08-30 12:00:56.440 ,6,1,0.,24.0,0.,24.0,0.,24.0,0.,24.0
1981-08-30 12:01:20.440 ,6,0,0.,24.0,0.,24.0,0.,24.0,0.,24.0
1981-08-30 12:01:44.440 ,7,1,0.,24.0,0.,24.0,0.,24.0,0.,24.0
1981-08-30 12:02:08.440 ,7,0,0.,24.0,0.,24.0,0.,24.0,0.,24.0
1981-08-30 12:02:32.440 ,7,1,0.,24.0,0.,24.0,0.,24.0,0.,24.0
1981-08-30 12:02:56.440 ,7,0,0.,24.0,0.,24.0,0.,24.0,0.,24.0
1981-08-30 12:03:20.440 ,6,1,0.,24.0,0.,24.0,0.,24.0,0.,24.0
1981-08-30 12:03:44.440 ,6,0,0.,24.0,0.,24.0,0.,24.0,0.,24.0
1981-08-30 12:04:08.440 ,5,1,0.,24.0,0.,24.0,0.,24.0,0.,24.0
1981-08-30 12:04:32.430 ,5,0,0.,24.0,0.,24.0,0.,24.0,0.,24.0
1981-08-30 12:04:56.430 ,4,1,0.,24.0,0.,24.0,0.,24.0,0.,24.0
1981-08-30 12:05:20.430 ,4,0,0.,24.0,0.,24.0,0.,24.0,0.,24.0
1981-08-30 12:05:44.430 ,3,1,0.,24.0,0.,24.0,0.,24.0,0.,24.0
1981-08-30 12:06:08.430 ,3,0,0.,24.0,0.,24.0,0.,24.0,0.,24.0
1981-08-30 12:06:32.430 ,2,1,0.,24.0,0.,24.0,0.,24.0,0.,24.0
1981-08-30 12:06:56.430 ,2,0,0.,24.0,0.,24.0,0.,24.0,0.,24.0
1981-08-30 12:07:20.430 ,1,1,0.,24.0,0.,24.0,0.,24.0,0.,24.0
1981-08-30 12:07:44.430 ,1,0,0.,24.0,0.,24.0,0.,24.0,0.,24.0
1981-08-30 12:08:08.430 ,0,1,0.,24.0,0.,24.0,0.,24.0,0.,24.0
1981-08-30 12:08:32.430 ,0,0,0.,24.0,0.,24.0,0.,24.0,0.,24.0
1981-08-30 12:08:56.430 ,0,1,0.,24.0,0.,24.0,0.,24.0,0.,24.0
1981-08-30 12:09:20.430 ,0,0,0.,24.0,0.,24.0,0.,24.0,0.,24.0
1981-08-30 12:09:44.430 ,1,1,0.,24.0,0.,24.0,0.,24.0,0.,24.0
1981-08-30 12:10:08.430 ,1,0,0.,24.0,0.,24.0,0.,24.0,0.,24.0
1981-08-30 12:10:32.430 ,2,1,0.,24.0,0.,24.0,0.,24.0,0.,24.0
1981-08-30 12:10:56.430 ,2,0,0.,24.0,0.,24.0,0.,24.0,0.,24.0
1981-08-30 12:11:20.430 ,3,1,0.,24.0,0.,24.0,0.,24.0,0.,24.0
1981-08-30 12:11:44.430 ,4,1,0.,24.0,0.,24.0,0.,24.0,0.,24.0
1981-08-30 12:12:08.430 ,5,1,0.,24.0,0.,24.0,0.,24.0,0.,24.0
1981-08-30 12:12:32.430 ,6,1,0.,24.0,0.,24.0,0.,24.0,0.,24.0
1981-08-30 12:12:56.430 ,7,1,0.,24.0,0.,24.0,0.,24.0,0.,24.0
1981-08-30 12:13:20.430 ,7,1,0.,24.0,0.,24.0,0.,24.0,0.,24.0
1981-08-30 12:13:44.430 ,6,1,0.,24.0,0.,24.0,0.,24.0,0.,24.0
1981-08-30 12:14:08.430 ,5,1,0.,24.0,0.,24.0,0.,24.0,0.,24.0
1981-08-30 12:14:32.430 ,4,1,0.,24.0,0.,24.0,0.,24.0,0.,24.0
1981-08-30 12:14:56.430 ,3,1,0.,24.0,0.,24.0,0.,24.0,0.,24.0
1981-08-30 12:15:20.430 ,2,1,0.,24.0,0.,24.0,0.,24.0,0.,24.0
1981-08-30 12:15:44.430 ,1,1,0.,24.0,0.,24.0,0.,24.0,0.,24.0
1981-08-30 12:16:08.430 ,0,1,0.,24.0,0.,24.0,0.,24.0,0.,24.0
1981-08-30 12:16:32.430 ,0,1,0.,24.0,0.,24.0,0.,24.0,0.,24.0
1981-08-30 12:16:56.430 ,1,1,0.,24.0,0.,24.0,0.,24.0,0.,24.0
1981-08-30 12:17:20.440 ,2,1,0.,24.0,0.,24.0,0.,24.0,0.,24.0
1981-08-30 12:17:44.440 ,3,1,0.,24.0,0.,24.0,0.,24.0,0.,24.0
1981-08-30 12:18:08.440 ,3,0,0.,24.0,0.,24.0,0.,24.0,0.,24.0
1981-08-30 12:18:32.440 ,4,1,0.,24.0,0.,24.0,0.,24.0,0.,24.0
1981-08-30 12:18:56.440 ,4,0,0.,24.0,0.,24.0,0.,24.0,0.,24.0
1981-08-30 12:19:20.440 ,5,1,0.,24.0,0.,24.0,0.,24.0,0.,24.0
1981-08-30 12:19:44.440 ,5,0,0.,24.0,0.,24.0,0.,24.0,0.,24.0
1981-08-30 12:20:08.430 ,6,1,0.,24.0,0.,24.0,0.,24.0,0.,24.0
1981-08-30 12:20:32.430 ,6,0,0.,24.0,0.,24.0,0.,24.0,0.,24.0
1981-08-30 12:20:56.430 ,7,1,0.,24.0,0.,24.0,0.,24.0,0.,24.0
1981-08-30 12:21:20.430 ,7,0,0.,24.0,0.,24.0,0.,24.0,0.,24.0
1981-08-30 12:21:44.430 ,7,1,0.,24.0,0.,24.0,0.,24.0,0.,24.0
1981-08-30 12:22:08.430 ,7,0,0.,24.0,0.,24.0,0.,24.0,0.,24.0
1981-08-30 12:22:32.430 ,6,1,0.,24.0,0.,24.0,0.,24.0,0.,24.0
1981-08-30 12:22:56.430 ,6,0,0.,24.0,0.,24.0,0.,24.0,0.,24.0
1981-08-30 12:23:20.430 ,5,1,0.,24.0,0.,24.0,0.,24.0,0.,24.0
1981-08-30 12:23:44.430 ,5,0,0.,24.0,0.,24.0,0.,24.0,0.,24.0
1981-08-30 12:24:08.430 ,4,1,0.,24.0,0.,24.0,0.,24.0,0.,24.0
1981-08-30 12:24:32.430 ,4,0,0.,24.0,0.,24.0,0.,24.0,0.,24.0
1981-08-30 12:24:56.430 ,3,1,0.,24.0,0.,24.0,0.,24.0,0.,24.0
1981-08-30 12:25:20.430 ,3,0,0.,24.0,0.,24.0,0.,24.0,0.,24.0
1981-08-30 12:25:44.430 ,2,1,0.,24.0,0.,24.0,0.,24.0,0.,24.0
1981-08-30 12:26:08.430 ,2,0,0.,24.0,0.,24.0,0.,24.0,0.,24.0
1981-08-30 12:26:32.430 ,1,1,0.,24.0,0.,24.0,0.,24.0,0.,24.0
1981-08-30 12:26:56.430 ,1,0,0.,24.0,0.,24.0,0.,24.0,0.,24.0
1981-08-30 12:27:20.430 ,0,1,0.,24.0,0.,24.0,0.,24.0,0.,24.0
1981-08-30 12:27:44.430 ,0,0,0.,24.0,0.,24.0,0.,24.0,0.,24.0
1981-08-30 12:28:08.430 ,0,1,0.,24.0,0.,24.0,0.,24.0,0.,24.0
1981-08-30 12:28:32.430 ,0,0,0.,24.0,0.,24.0,0.,24.0,0.,24.0
1981-08-30 12:28:56.430 ,1,1,0.,24.0,0.,24.0,0.,24.0,0.,24.0
1981-08-30 12:29:20.430 ,1,0,0.,24.0,0.,24.0,0.,24.0,0.,24.0
1981-08-30 12:29:44.430 ,2,1,0.,24.0,0.,24.0,0.,24.0,0.,24.0
1981-08-30 12:30:08.430 ,2,0,0.,24.0,0.,24.0,0.,24.0,0.,24.0
1981-08-30 12:30:32.430 ,3,1,0.,24.0,0.,24.0,0.,24.0,0.,24.0
1981-08-30 12:30:56.430 ,4,0,,0,,0,,0,,0
1981-08-30 12:31:20.430 ,5,1,0.,24.0,0.,24.0,0.,24.0,0.,24.0
1981-08-30 12:31:44.430 ,6,1,0.,24.0,0.,24.0,0.,24.0,0.,24.0
1981-08-30 12:32:08.430 ,7,1,0.,24.0,0.,24.0,0.,24.0,0.,24.0
1981-08-30 12:32:32.430 ,7,1,0.,24.0,0.,24.0,0.,24.0,0.,24.0
1981-08-30 12:32:56.430 ,6,1,0.,24.0,0.,24.0,0.,24.0,0.,24.0
1981-08-30 12:33:20.430 ,5,1,0.,24.0,0.,24.0,0.,24.0,0.,24.0
1981-08-30 12:33:44.430 ,4,1,0.,24.0,0.,24.0,0.,24.0,0.,24.0
1981-08-30 12:34:08.430 ,3,1,0.,24.0,0.,24.0,0.,24.0,0.,24.0
1981-08-30 12:34:32.430 ,2,1,0.,24.0,0.,24.0,0.,24.0,0.,24.0
1981-08-30 12:34:56.430 ,1,1,0.,24.0,0.,24.0,0.,24.0,0.,24.0
1981-08-30 12:35:20.430 ,0,1,0.,24.0,0.,24.0,0.,24.0,0.,24.0
1981-08-30 12:35:44.430 ,0,1,1.,24.0,0.,24.0,0.,24.0,0.,24.0
1981-08-30 12:36:08.430 ,1,1,0.,24.0,0.,24.0,0.,24.0,0.,24.0
1981-08-30 12:36:32.430 ,2,1,0.,24.0,0.,24.0,0.,24.0,0.,24.0
1981-08-30 12:36:56.430 ,3,1,0.,24.0,0.,24.0,0.,24.0,0.,24.0
1981-08-30 12:37:20.430 ,3,0,0.,24.0,0.,24.0,0.,24.0,0.,24.0
1981-08-30 12:37:44.430 ,4,1,0.,24.0,0.,24.0,0.,24.0,0.,24.0
1981-08-30 12:38:08.430 ,4,0,0.,24.0,0.,24.0,0.,24.0,0.,24.0
1981-08-30 12:38:32.430 ,5,1,0.,24.0,0.,24.0,0.,24.0,0.,24.0
1981-08-30 12:38:56.430 ,5,0,0.,24.0,0.,24.0,0.,24.0,0.,24.0
1981-08-30 12:39:20.430 ,6,1,0.,24.0,0.,24.0,0.,24.0,0.,24.0
1981-08-30 12:39:44.430 ,6,0,0.,24.0,0.,24.0,0.,24.0,0.,24.0
1981-08-30 12:40:08.430 ,7,1,0.,24.0,0.,24.0,0.,24.0,0.,24.0
1981-08-30 12:40:32.430 ,7,0,0.,24.0,0.,24.0,0.,24.0,0.,24.0
1981-08-30 12:40:56.430 ,7,1,0.,24.0,0.,24.0,0.,24.0,0.,24.0
1981-08-30 12:41:20.430 ,7,0,0.,24.0,0.,24.0,0.,24.0,0.,24.0
1981-08-30 12:41:44.430 ,6,1,0.,24.0,0.,24.0,0.,24.0,0.,24.0
1981-08-30 12:42:08.430 ,6,0,0.,24.0,0.,24.0,0.,24.0,0.,24.0
1981-08-30 12:42:32.430 ,5,1,0.,24.0,0.,24.0,0.,24.0,0.,24.0
1981-08-30 12:42:56.430 ,5,0,0.,24.0,0.,24.0,0.,24.0,0.,24.0
1981-08-30 12:43:20.430 ,4,1,0.,24.0,0.,24.0,0.,24.0,0.,24.0
1981-08-30 12:43:44.430 ,4,0,0.,24.0,0.,24.0,0.,24.0,0.,24.0
1981-08-30 12:44:08.430 ,3,1,0.,24.0,0.,24.0,0.,24.0,0.,24.0
1981-08-30 12:44:32.430 ,3,0,0.,24.0,0.,24.0,0.,24.0,0.,24.0
1981-08-30 12:44:56.430 ,2,1,0.,24.0,0.,24.0,0.,24.0,0.,24.0
1981-08-30 12:45:20.430 ,2,0,0.,24.0,0.,24.0,0.,24.0,0.,24.0
1981-08-30 12:45:44.430 ,1,1,1.,24.0,0.,24.0,0.,24.0,0.,24.0
1981-08-30 12:46:08.430 ,1,0,0.,24.0,0.,24.0,0.,24.0,0.,24.0
1981-08-30 12:46:32.430 ,0,1,0.,24.0,0.,24.0,0.,24.0,0.,24.0
1981-08-30 12:46:56.430 ,0,0,0.,24.0,0.,24.0,0.,24.0,0.,24.0
1981-08-30 12:47:20.430 ,0,1,0.,24.0,0.,24.0,0.,24.0,0.,24.0
1981-08-30 12:47:44.430 ,0,0,0.,24.0,0.,24.0,0.,24.0,0.,24.0
1981-08-30 12:48:08.430 ,1,1,0.,24.0,0.,24.0,0.,24.0,0.,24.0
1981-08-30 12:48:32.430 ,1,0,0.,24.0,0.,24.0,0.,24.0,0.,24.0
1981-08-30 12:48:56.430 ,2,1,0.,24.0,0.,24.0,0.,24.0,0.,24.0
1981-08-30 12:49:20.430 ,2,0,0.,24.0,0.,24.0,0.,24.0,0.,24.0
1981-08-30 12:49:44.430 ,3,1,0.,24.0,0.,24.0,0.,24.0,0.,24.0
1981-08-30 12:50:08.430 ,4,1,0.,24.0,0.,24.0,0.,24.0,0.,24.0
1981-08-30 12:50:32.430 ,5,1,0.,24.0,0.,24.0,0.,24.0,0.,24.0
1981-08-30 12:50:56.430 ,6,1,0.,24.0,0.,24.0,0.,24.0,0.,24.0
1981-08-30 12:51:20.430 ,7,1,0.,24.0,0.,24.0,0.,24.0,0.,24.0
1981-08-30 12:51:44.430 ,7,1,0.,24.0,0.,24.0,0.,24.0,0.,24.0
1981-08-30 12:52:08.430 ,6,1,0.,24.0,0.,24.0,0.,24.0,0.,24.0
1981-08-30 12:52:32.430 ,5,1,0.,24.0,0.,24.0,0.,24.0,0.,24.0
1981-08-30 12:52:56.430 ,4,1,0.,24.0,0.,24.0,0.,24.0,0.,24.0
1981-08-30 12:53:20.430 ,3,1,0.,24.0,0.,24.0,0.,24.0,0.,24.0
1981-08-30 12:53:44.430 ,2,1,0.,24.0,0.,24.0,0.,24.0,0.,24.0
1981-08-30 12:54:08.430 ,1,1,0.,24.0,0.,24.0,0.,24.0,0.,24.0
1981-08-30 12:54:32.430 ,0,1,0.,24.0,0.,24.0,0.,24.0,0.,24.0
1981-08-30 12:54:56.430 ,0,1,0.,24.0,0.,24.0,0.,24.0,0.,24.0
1981-08-30 12:55:20.430 ,1,1,0.,24.0,0.,24.0,0.,24.0,0.,24.0
1981-08-30 12:55:44.430 ,2,1,0.,24.0,0.,24.0,0.,24.0,0.,24.0
1981-08-30 12:56:08.430 ,3,1,0.,24.0,0.,24.0,0.,24.0,0.,24.0
1981-08-30 12:56:32.430 ,3,0,0.,24.0,0.,24.0,0.,24.0,0.,24.0
1981-08-30 12:56:56.430 ,4,1,0.,24.0,0.,24.0,0.,24.0,0.,24.0
1981-08-30 12:57:20.430 ,4,0,0.,24.0,0.,24.0,0.,24.0,0.,24.0
1981-08-30 12:57:44.430 ,5,1,0.,24.0,0.,24.0,0.,24.0,0.,24.0
1981-08-30 12:58:08.430 ,5,0,0.,24.0,0.,24.0,0.,24.0,0.,24.0
1981-08-30 12:58:32.430 ,6,1,0.,24.0,0.,24.0,0.,24.0,0.,24.0
1981-08-30 12:58:56.430 ,6,0,0.,24.0,0.,24.0,0.,24.0,0.,24.0
1981-08-30 12:59:20.430 ,7,1,0.,24.0,0.,24.0,0.,24.0,0.,24.0
1981-08-30 12:59:44.430 ,7,0,0.,24.0,0.,24.0,0.,24.0,0.,24.0
1981-08-30 13:00:08.430 ,7,1,0.,24.0,0.,24.0,0.,24.0,0.,24.0
1981-08-30 13:00:32.430 ,7,0,0.,24.0,0.,24.0,0.,24.0,0.,24.0
1981-08-30 13:00:32.430 ,7,0,0.,24.0,0.,24.0,0.,24.0,0.,24.0
1981-08-30 13:00:56.430 ,6,1,0.,24.0,0.,24.0,0.,24.0,0.,24.0
1981-08-30 13:01:20.430 ,6,0,0.,24.0,0.,24.0,0.,24.0,0.,24.0
1981-08-30 13:01:44.430 ,5,1,0.,24.0,0.,24.0,0.,24.0,0.,24.0
1981-08-30 13:02:08.430 ,5,0,0.,24.0,0.,24.0,0.,24.0,0.,24.0
1981-08-30 13:02:32.430 ,4,1,0.,24.0,0.,24.0,0.,24.0,0.,24.0
1981-08-30 13:02:56.430 ,4,0,0.,24.0,0.,24.0,0.,24.0,0.,24.0
1981-08-30 13:03:20.430 ,3,1,0.,24.0,0.,24.0,0.,24.0,0.,24.0
1981-08-30 13:03:44.430 ,3,0,0.,24.0,0.,24.0,0.,24.0,0.,24.0
1981-08-30 13:04:08.430 ,2,1,0.,24.0,0.,24.0,0.,24.0,0.,24.0
1981-08-30 13:04:32.430 ,2,0,0.,24.0,0.,24.0,0.,24.0,0.,24.0
1981-08-30 13:04:56.430 ,1,1,0.,24.0,0.,24.0,0.,24.0,0.,24.0
1981-08-30 13:05:20.430 ,1,0,0.,24.0,0.,24.0,0.,24.0,0.,24.0
1981-08-30 13:05:44.430 ,0,1,0.,24.0,0.,24.0,0.,24.0,0.,24.0
1981-08-30 13:06:08.430 ,0,0,0.,24.0,0.,24.0,0.,24.0,0.,24.0
1981-08-30 13:06:32.430 ,0,1,0.,24.0,0.,24.0,0.,24.0,0.,24.0
1981-08-30 13:06:56.430 ,0,0,0.,24.0,0.,24.0,0.,24.0,0.,24.0
1981-08-30 13:07:20.430 ,1,1,0.,24.0,0.,24.0,0.,24.0,0.,24.0
1981-08-30 13:07:44.430 ,1,0,0.,24.0,0.,24.0,0.,24.0,0.,24.0
1981-08-30 13:08:08.430 ,2,1,0.,24.0,0.,24.0,0.,24.0,0.,24.0
1981-08-30 13:08:32.430 ,2,0,0.,24.0,0.,24.0,0.,24.0,0.,24.0
1981-08-30 13:08:56.430 ,3,1,0.,24.0,0.,24.0,0.,24.0,0.,24.0
1981-08-30 13:09:20.430 ,4,1,0.,24.0,0.,24.0,0.,24.0,0.,24.0
1981-08-30 13:09:44.430 ,5,1,1.,24.0,0.,24.0,0.,24.0,0.,24.0
1981-08-30 13:10:08.430 ,6,1,0.,24.0,0.,24.0,0.,24.0,0.,24.0
1981-08-30 13:10:32.430 ,7,1,0.,24.0,0.,24.0,0.,24.0,0.,24.0
1981-08-30 13:10:56.430 ,7,1,0.,24.0,0.,24.0,0.,24.0,0.,24.0
1981-08-30 13:11:20.430 ,6,1,0.,24.0,0.,24.0,0.,24.0,0.,24.0
1981-08-30 13:11:44.430 ,5,1,0.,24.0,0.,24.0,0.,24.0,0.,24.0
1981-08-30 13:12:08.430 ,4,1,0.,24.0,0.,24.0,0.,24.0,0.,24.0
1981-08-30 13:12:32.430 ,3,1,0.,24.0,0.,24.0,0.,24.0,0.,24.0
1981-08-30 13:12:56.430 ,2,1,0.,24.0,0.,24.0,0.,24.0,0.,24.0
1981-08-30 13:13:20.430 ,1,1,0.,24.0,0.,24.0,0.,24.0,0.,24.0
1981-08-30 13:13:44.430 ,0,1,0.,24.0,0.,24.0,0.,24.0,0.,24.0
1981-08-30 13:14:08.430 ,0,1,0.,24.0,0.,24.0,0.,24.0,0.,24.0
1981-08-30 13:14:32.430 ,1,1,0.,24.0,0.,24.0,0.,24.0,0.,24.0
1981-08-30 13:14:56.430 ,2,1,0.,24.0,0.,24.0,0.,24.0,0.,24.0
1981-08-30 13:15:20.430 ,3,1,0.,24.0,0.,24.0,0.,24.0,0.,24.0
1981-08-30 13:15:44.430 ,3,0,0.,24.0,0.,24.0,0.,24.0,0.,24.0
1981-08-30 13:16:08.430 ,4,1,0.,24.0,0.,24.0,0.,24.0,0.,24.0
1981-08-30 13:16:32.430 ,4,0,0.,24.0,0.,24.0,0.,24.0,0.,24.0
1981-08-30 13:16:56.430 ,5,1,0.,24.0,0.,24.0,0.,24.0,0.,24.0
1981-08-30 13:17:20.430 ,5,0,0.,24.0,0.,24.0,0.,24.0,0.,24.0
1981-08-30 13:17:44.430 ,6,1,0.,24.0,0.,24.0,0.,24.0,0.,24.0
1981-08-30 13:18:08.430 ,6,0,0.,24.0,0.,24.0,0.,24.0,0.,24.0
1981-08-30 13:18:32.430 ,7,1,0.,24.0,0.,24.0,0.,24.0,0.,24.0
1981-08-30 13:18:56.430 ,7,0,0.,24.0,0.,24.0,0.,24.0,0.,24.0
1981-08-30 13:19:20.430 ,7,1,0.,24.0,0.,24.0,0.,24.0,0.,24.0
1981-08-30 13:19:44.430 ,7,0,0.,24.0,0.,24.0,0.,24.0,0.,24.0
1981-08-30 13:20:08.430 ,6,1,0.,24.0,0.,24.0,0.,24.0,0.,24.0
1981-08-30 13:20:32.430 ,6,0,0.,24.0,0.,24.0,0.,24.0,0.,24.0
1981-08-30 13:20:56.430 ,5,1,0.,24.0,0.,24.0,0.,24.0,0.,24.0
1981-08-30 13:21:20.430 ,5,0,0.,24.0,0.,24.0,0.,24.0,0.,24.0
1981-08-30 13:21:44.430 ,4,1,0.,24.0,0.,24.0,0.,24.0,0.,24.0
1981-08-30 13:22:08.430 ,4,0,0.,24.0,0.,24.0,0.,24.0,0.,24.0
1981-08-30 13:22:32.430 ,3,1,0.,24.0,0.,24.0,0.,24.0,0.,24.0
1981-08-30 13:22:56.430 ,3,0,0.,24.0,0.,24.0,0.,24.0,0.,24.0
1981-08-30 13:23:20.430 ,2,1,0.,24.0,0.,24.0,0.,24.0,0.,24.0
1981-08-30 13:23:44.430 ,2,0,0.,24.0,0.,24.0,0.,24.0,0.,24.0
1981-08-30 13:24:08.430 ,1,1,0.,24.0,0.,24.0,0.,24.0,0.,24.0
1981-08-30 13:24:32.430 ,1,0,0.,24.0,0.,24.0,0.,24.0,0.,24.0
1981-08-30 13:24:56.430 ,0,1,0.,24.0,0.,24.0,0.,24.0,0.,24.0
1981-08-30 13:25:20.430 ,0,0,0.,24.0,0.,24.0,0.,24.0,0.,24.0
1981-08-30 13:25:44.430 ,0,1,0.,24.0,0.,24.0,0.,24.0,0.,24.0
1981-08-30 13:26:08.430 ,0,0,0.,24.0,0.,24.0,0.,24.0,0.,24.0
1981-08-30 13:26:32.430 ,1,1,0.,24.0,0.,24.0,0.,24.0,0.,24.0
1981-08-30 13:26:56.430 ,1,0,0.,24.0,0.,24.0,0.,24.0,0.,24.0
1981-08-30 13:27:20.430 ,2,1,0.,24.0,0.,24.0,0.,24.0,0.,24.0
1981-08-30 13:27:44.430 ,2,0,0.,24.0,0.,24.0,0.,24.0,0.,24.0
1981-08-30 13:28:08.430 ,3,1,0.,24.0,0.,24.0,0.,24.0,0.,24.0
1981-08-30 13:28:32.430 ,4,1,0.,24.0,0.,24.0,0.,24.0,0.,24.0
1981-08-30 13:28:56.430 ,5,1,0.,24.0,0.,24.0,0.,24.0,0.,24.0
1981-08-30 13:29:20.430 ,6,1,0.,24.0,0.,24.0,0.,24.0,0.,24.0
1981-08-30 13:29:44.430 ,7,1,0.,24.0,0.,24.0,0.,24.0,0.,24.0
1981-08-30 13:30:08.430 ,7,1,0.,24.0,0.,24.0,0.,24.0,0.,24.0
1981-08-30 13:30:32.430 ,6,1,0.,24.0,0.,24.0,0.,24.0,0.,24.0
1981-08-30 13:30:56.430 ,5,1,0.,24.0,0.,24.0,0.,24.0,0.,24.0
1981-08-30 13:31:20.430 ,4,1,0.,24.0,0.,24.0,0.,24.0,0.,24.0
1981-08-30 13:31:44.430 ,3,1,0.,24.0,0.,24.0,0.,24.0,0.,24.0
1981-08-30 13:32:08.430 ,2,1,0.,24.0,0.,24.0,0.,24.0,0.,24.0
1981-08-30 13:32:32.430 ,1,1,0.,24.0,0.,24.0,0.,24.0,0.,24.0
1981-08-30 13:32:56.430 ,0,1,0.,24.0,0.,24.0,0.,24.0,0.,24.0
1981-08-30 13:33:20.430 ,0,1,0.,24.0,0.,24.0,0.,24.0,0.,24.0
1981-08-30 13:33:44.430 ,1,1,0.,24.0,0.,24.0,0.,24.0,0.,24.0
1981-08-30 13:34:08.430 ,2,1,0.,24.0,0.,24.0,0.,24.0,0.,24.0
1981-08-30 13:34:32.430 ,3,1,0.,24.0,0.,24.0,0.,24.0,0.,24.0
1981-08-30 13:34:56.430 ,3,0,0.,24.0,0.,24.0,0.,24.0,0.,24.0
1981-08-30 13:35:20.430 ,4,1,0.,24.0,0.,24.0,0.,24.0,0.,24.0
1981-08-30 13:35:44.430 ,4,0,0.,24.0,0.,24.0,0.,24.0,0.,24.0
1981-08-30 13:36:08.430 ,5,1,0.,24.0,0.,24.0,0.,24.0,0.,24.0
1981-08-30 13:36:32.430 ,5,0,0.,24.0,0.,24.0,0.,24.0,0.,24.0
1981-08-30 13:36:56.430 ,6,1,0.,24.0,0.,24.0,0.,24.0,0.,24.0
1981-08-30 13:37:20.430 ,6,0,0.,24.0,0.,24.0,0.,24.0,0.,24.0
1981-08-30 13:37:44.430 ,7,1,0.,24.0,0.,24.0,0.,24.0,0.,24.0
1981-08-30 13:38:08.430 ,7,0,0.,24.0,0.,24.0,0.,24.0,0.,24.0
1981-08-30 13:38:32.430 ,7,1,0.,24.0,0.,24.0,0.,24.0,0.,24.0
1981-08-30 13:38:56.430 ,7,0,0.,24.0,0.,24.0,0.,24.0,0.,24.0
1981-08-30 13:39:20.430 ,6,1,0.,24.0,0.,24.0,0.,24.0,0.,24.0
1981-08-30 13:39:44.430 ,6,0,0.,24.0,0.,24.0,0.,24.0,0.,24.0
1981-08-30 13:40:08.430 ,5,1,0.,24.0,0.,24.0,0.,24.0,0.,24.0
1981-08-30 13:40:32.430 ,5,0,0.,24.0,0.,24.0,0.,24.0,0.,24.0
1981-08-30 13:40:56.430 ,4,1,0.,24.0,0.,24.0,0.,24.0,0.,24.0
1981-08-30 13:41:20.430 ,4,0,0.,24.0,0.,24.0,0.,24.0,0.,24.0
1981-08-30 13:41:44.430 ,3,1,0.,24.0,0.,24.0,0.,24.0,0.,24.0
1981-08-30 13:42:08.430 ,3,0,0.,24.0,0.,24.0,0.,24.0,0.,24.0
1981-08-30 13:42:32.430 ,2,1,0.,24.0,0.,24.0,0.,24.0,0.,24.0
1981-08-30 13:42:56.430 ,2,0,0.,24.0,0.,24.0,0.,24.0,0.,24.0
1981-08-30 13:43:20.430 ,1,1,0.,24.0,0.,24.0,0.,24.0,0.,24.0
1981-08-30 13:43:44.430 ,1,0,0.,24.0,0.,24.0,0.,24.0,0.,24.0
1981-08-30 13:44:08.430 ,0,1,0.,24.0,0.,24.0,0.,24.0,0.,24.0
1981-08-30 13:44:32.430 ,0,0,0.,24.0,0.,24.0,0.,24.0,0.,24.0
1981-08-30 13:44:56.430 ,0,1,0.,24.0,0.,24.0,0.,24.0,0.,24.0
1981-08-30 13:45:20.430 ,0,0,0.,24.0,0.,24.0,0.,24.0,0.,24.0
1981-08-30 13:45:44.430 ,1,1,0.,24.0,0.,24.0,0.,24.0,0.,24.0
1981-08-30 13:46:08.430 ,1,0,0.,24.0,0.,24.0,0.,24.0,0.,24.0
1981-08-30 13:46:32.430 ,2,1,0.,24.0,0.,24.0,0.,24.0,0.,24.0
1981-08-30 13:46:56.430 ,2,0,0.,24.0,0.,24.0,0.,24.0,0.,24.0
1981-08-30 13:47:20.430 ,3,1,0.,24.0,0.,24.0,0.,24.0,0.,24.0
1981-08-30 13:47:44.430 ,4,1,0.,24.0,0.,24.0,0.,24.0,0.,24.0
1981-08-30 13:48:08.430 ,5,1,0.,24.0,0.,24.0,0.,24.0,0.,24.0
1981-08-30 13:48:32.430 ,6,1,0.,24.0,0.,24.0,0.,24.0,0.,24.0
1981-08-30 13:48:56.430 ,7,1,0.,24.0,0.,24.0,0.,24.0,0.,24.0
1981-08-30 13:49:20.430 ,7,1,0.,24.0,0.,24.0,0.,24.0,0.,24.0
1981-08-30 13:49:44.430 ,6,1,0.,24.0,0.,24.0,0.,24.0,0.,24.0
1981-08-30 13:50:08.430 ,5,1,0.,24.0,0.,24.0,0.,24.0,0.,24.0
1981-08-30 13:50:32.430 ,4,1,0.,24.0,0.,24.0,0.,24.0,0.,24.0
1981-08-30 13:50:56.430 ,3,1,0.,24.0,0.,24.0,0.,24.0,0.,24.0
1981-08-30 13:51:20.430 ,2,1,0.,24.0,0.,24.0,0.,24.0,0.,24.0
1981-08-30 13:51:44.430 ,1,1,0.,24.0,0.,24.0,0.,24.0,0.,24.0
1981-08-30 13:52:08.430 ,0,1,1.,24.0,0.,24.0,0.,24.0,0.,24.0
1981-08-30 13:52:32.430 ,0,1,0.,24.0,0.,24.0,0.,24.0,0.,24.0
1981-08-30 13:52:56.430 ,1,1,0.,24.0,0.,24.0,0.,24.0,0.,24.0
1981-08-30 13:53:20.430 ,2,1,0.,24.0,0.,24.0,0.,24.0,0.,24.0
1981-08-30 13:53:44.430 ,3,1,1.,24.0,0.,24.0,0.,24.0,0.,24.0
1981-08-30 13:54:08.430 ,3,0,0.,24.0,0.,24.0,0.,24.0,0.,24.0
1981-08-30 13:54:32.430 ,4,1,0.,24.0,0.,24.0,0.,24.0,0.,24.0
1981-08-30 13:54:56.430 ,4,0,0.,24.0,0.,24.0,0.,24.0,0.,24.0
1981-08-30 13:55:20.430 ,5,1,0.,24.0,0.,24.0,0.,24.0,0.,24.0
1981-08-30 13:55:44.430 ,5,0,0.,24.0,0.,24.0,0.,24.0,0.,24.0
1981-08-30 13:56:08.430 ,6,1,0.,24.0,0.,24.0,0.,24.0,0.,24.0
1981-08-30 13:56:32.430 ,6,0,0.,24.0,0.,24.0,0.,24.0,0.,24.0
1981-08-30 13:56:56.430 ,7,1,0.,24.0,0.,24.0,0.,24.0,0.,24.0
1981-08-30 13:57:20.430 ,7,0,0.,24.0,0.,24.0,0.,24.0,0.,24.0
1981-08-30 13:57:44.430 ,7,1,0.,24.0,0.,24.0,0.,24.0,0.,24.0
1981-08-30 13:58:08.430 ,7,0,0.,24.0,0.,24.0,0.,24.0,0.,24.0
1981-08-30 13:58:32.430 ,6,1,0.,24.0,0.,24.0,0.,24.0,0.,24.0
1981-08-30 13:58:56.430 ,6,0,0.,24.0,0.,24.0,0.,24.0,0.,24.0
1981-08-30 13:59:20.430 ,5,1,0.,24.0,0.,24.0,0.,24.0,0.,24.0
1981-08-30 13:59:44.430 ,5,0,0.,24.0,0.,24.0,0.,24.0,0.,24.0
1981-08-30 14:00:08.430 ,4,1,0.,24.0,0.,24.0,0.,24.0,0.,24.0
1981-08-30 14:00:32.430 ,4,0,0.,24.0,0.,24.0,0.,24.0,0.,24.0
1981-08-30 14:00:56.430 ,3,1,0.,24.0,0.,24.0,0.,24.0,0.,24.0
1981-08-30 14:01:20.430 ,3,0,0.,24.0,0.,24.0,0.,24.0,0.,24.0
1981-08-30 14:01:44.430 ,2,1,0.,24.0,0.,24.0,0.,24.0,0.,24.0
1981-08-30 14:02:08.430 ,2,0,0.,24.0,0.,24.0,0.,24.0,0.,24.0
1981-08-30 14:02:32.430 ,1,1,0.,24.0,0.,24.0,0.,24.0,0.,24.0
1981-08-30 14:02:56.430 ,1,0,1.,24.0,0.,24.0,0.,24.0,0.,24.0
1981-08-30 14:03:20.430 ,0,1,0.,24.0,0.,24.0,0.,24.0,0.,24.0
1981-08-30 14:03:44.430 ,0,0,0.,24.0,0.,24.0,0.,24.0,0.,24.0
1981-08-30 14:04:08.430 ,0,1,0.,24.0,0.,24.0,0.,24.0,0.,24.0
1981-08-30 14:04:32.430 ,0,0,0.,24.0,0.,24.0,0.,24.0,0.,24.0
1981-08-30 14:04:56.430 ,1,1,0.,24.0,0.,24.0,0.,24.0,0.,24.0
1981-08-30 14:05:20.430 ,1,0,0.,24.0,0.,24.0,0.,24.0,0.,24.0
1981-08-30 14:05:44.430 ,2,1,0.,24.0,0.,24.0,0.,24.0,0.,24.0
1981-08-30 14:06:08.430 ,2,0,0.,24.0,0.,24.0,0.,24.0,0.,24.0
1981-08-30 14:06:32.430 ,3,1,0.,24.0,0.,24.0,0.,24.0,0.,24.0
1981-08-30 14:06:56.430 ,4,1,0.,24.0,0.,24.0,0.,24.0,0.,24.0
1981-08-30 14:07:20.430 ,5,1,0.,24.0,0.,24.0,0.,24.0,0.,24.0
1981-08-30 14:07:44.430 ,6,1,0.,24.0,0.,24.0,0.,24.0,0.,24.0
1981-08-30 14:08:08.430 ,7,1,0.,24.0,0.,24.0,0.,24.0,0.,24.0
1981-08-30 14:08:32.430 ,7,1,0.,24.0,0.,24.0,0.,24.0,0.,24.0
1981-08-30 14:08:56.430 ,6,1,0.,24.0,0.,24.0,0.,24.0,0.,24.0
1981-08-30 14:09:20.430 ,5,1,0.,24.0,0.,24.0,0.,24.0,0.,24.0
1981-08-30 14:09:44.430 ,4,1,0.,24.0,0.,24.0,0.,24.0,0.,24.0
1981-08-30 14:10:08.430 ,3,1,0.,24.0,0.,24.0,0.,24.0,0.,24.0
1981-08-30 14:10:32.430 ,2,1,0.,24.0,0.,24.0,0.,24.0,0.,24.0
1981-08-30 14:10:56.430 ,1,1,0.,24.0,0.,24.0,0.,24.0,0.,24.0
1981-08-30 14:11:20.430 ,0,1,0.,24.0,0.,24.0,0.,24.0,0.,24.0
1981-08-30 14:11:44.430 ,0,1,0.,24.0,0.,24.0,0.,24.0,0.,24.0
1981-08-30 14:12:08.430 ,1,1,0.,24.0,0.,24.0,0.,24.0,0.,24.0
1981-08-30 14:12:32.430 ,2,1,0.,24.0,0.,24.0,0.,24.0,0.,24.0
1981-08-30 14:12:56.430 ,3,1,0.,24.0,0.,24.0,0.,24.0,0.,24.0
1981-08-30 14:13:20.430 ,3,0,0.,24.0,0.,24.0,0.,24.0,0.,24.0
1981-08-30 14:13:44.430 ,4,1,0.,24.0,0.,24.0,0.,24.0,0.,24.0
1981-08-30 14:14:08.430 ,4,0,0.,24.0,0.,24.0,0.,24.0,0.,24.0
1981-08-30 14:14:32.430 ,5,1,0.,24.0,0.,24.0,0.,24.0,0.,24.0
1981-08-30 14:14:56.430 ,5,0,0.,24.0,0.,24.0,0.,24.0,0.,24.0
1981-08-30 14:15:20.430 ,6,1,0.,24.0,0.,24.0,0.,24.0,0.,24.0
1981-08-30 14:15:44.430 ,6,0,0.,24.0,0.,24.0,0.,24.0,0.,24.0
1981-08-30 14:16:08.430 ,7,1,0.,24.0,0.,24.0,0.,24.0,0.,24.0
1981-08-30 14:16:32.430 ,7,0,0.,24.0,0.,24.0,0.,24.0,0.,24.0
1981-08-30 14:16:56.430 ,7,1,0.,24.0,0.,24.0,0.,24.0,0.,24.0
1981-08-30 14:17:20.430 ,7,0,0.,24.0,0.,24.0,0.,24.0,0.,24.0
1981-08-30 14:17:44.430 ,6,1,0.,24.0,0.,24.0,0.,24.0,0.,24.0
1981-08-30 14:18:08.430 ,6,0,0.,24.0,0.,24.0,0.,24.0,0.,24.0
1981-08-30 14:18:32.430 ,5,1,0.,24.0,0.,24.0,0.,24.0,0.,24.0
1981-08-30 14:18:56.430 ,5,0,0.,24.0,0.,24.0,0.,24.0,0.,24.0
1981-08-30 14:19:20.430 ,4,1,0.,24.0,0.,24.0,0.,24.0,0.,24.0
1981-08-30 14:19:44.430 ,4,0,0.,24.0,0.,24.0,0.,24.0,0.,24.0
1981-08-30 14:20:08.430 ,3,1,0.,24.0,0.,24.0,0.,24.0,0.,24.0
1981-08-30 14:20:32.430 ,3,0,0.,24.0,0.,24.0,0.,24.0,0.,24.0
1981-08-30 14:20:56.430 ,2,1,0.,24.0,0.,24.0,0.,24.0,0.,24.0
1981-08-30 14:21:20.430 ,2,0,0.,24.0,0.,24.0,0.,24.0,0.,24.0
1981-08-30 14:21:44.430 ,1,1,0.,24.0,0.,24.0,0.,24.0,0.,24.0
1981-08-30 14:22:08.430 ,1,0,0.,24.0,0.,24.0,0.,24.0,0.,24.0
1981-08-30 14:22:32.430 ,0,1,0.,24.0,0.,24.0,0.,24.0,0.,24.0
1981-08-30 14:22:56.430 ,0,0,0.,24.0,0.,24.0,0.,24.0,0.,24.0
1981-08-30 14:23:20.430 ,0,1,0.,24.0,0.,24.0,0.,24.0,0.,24.0
1981-08-30 14:23:44.430 ,0,0,0.,24.0,0.,24.0,0.,24.0,0.,24.0
1981-08-30 14:24:08.430 ,1,1,0.,24.0,0.,24.0,0.,24.0,0.,24.0
1981-08-30 14:24:32.430 ,1,0,0.,24.0,0.,24.0,0.,24.0,0.,24.0
1981-08-30 14:24:56.430 ,2,1,0.,24.0,0.,24.0,0.,24.0,0.,24.0
1981-08-30 14:25:20.430 ,2,0,0.,24.0,0.,24.0,0.,24.0,0.,24.0
1981-08-30 14:25:44.430 ,3,1,0.,24.0,0.,24.0,0.,24.0,0.,24.0
1981-08-30 14:26:08.430 ,4,1,0.,24.0,0.,24.0,0.,24.0,0.,24.0
1981-08-30 14:26:32.430 ,5,1,0.,24.0,0.,24.0,0.,24.0,0.,24.0
1981-08-30 14:26:56.430 ,6,1,0.,24.0,0.,24.0,0.,24.0,0.,24.0
1981-08-30 14:27:20.430 ,7,1,0.,24.0,0.,24.0,0.,24.0,0.,24.0
1981-08-30 14:27:44.430 ,7,1,0.,24.0,0.,24.0,0.,24.0,0.,24.0
1981-08-30 14:28:08.430 ,6,1,0.,24.0,0.,24.0,0.,24.0,0.,24.0
1981-08-30 14:28:32.430 ,5,1,0.,24.0,0.,24.0,0.,24.0,0.,24.0
1981-08-30 14:28:56.430 ,4,1,0.,24.0,0.,24.0,0.,24.0,0.,24.0
1981-08-30 14:29:20.430 ,3,1,0.,24.0,0.,24.0,0.,24.0,0.,24.0
1981-08-30 14:29:44.430 ,2,1,0.,24.0,0.,24.0,0.,24.0,0.,24.0
1981-08-30 14:30:08.430 ,1,1,0.,24.0,0.,24.0,0.,24.0,0.,24.0
1981-08-30 14:30:32.430 ,0,1,0.,24.0,0.,24.0,0.,24.0,0.,24.0
1981-08-30 14:30:56.430 ,0,1,0.,24.0,0.,24.0,0.,24.0,0.,24.0
1981-08-30 14:31:20.430 ,1,1,0.,24.0,0.,24.0,0.,24.0,0.,24.0
1981-08-30 14:31:44.430 ,2,1,0.,24.0,0.,24.0,0.,24.0,0.,24.0
1981-08-30 14:32:08.430 ,3,1,0.,24.0,0.,24.0,0.,24.0,0.,24.0
1981-08-30 14:32:32.430 ,3,0,0.,24.0,0.,24.0,0.,24.0,0.,24.0
1981-08-30 14:32:56.430 ,4,1,0.,24.0,0.,24.0,0.,24.0,0.,24.0
1981-08-30 14:33:20.430 ,4,0,0.,24.0,0.,24.0,0.,24.0,0.,24.0
1981-08-30 14:33:44.430 ,5,1,0.,24.0,0.,24.0,0.,24.0,0.,24.0
1981-08-30 14:34:08.430 ,5,0,0.,24.0,0.,24.0,0.,24.0,0.,24.0